| time (UTC) | temp C | wind direction | speed KPH | gust KPH | rain 1hr cm | rain 24hr cm | rain mn cm | humidity % | barometer mb |
| 20260905153438 | 21 | 0 | 0.0 | 0.0 | 0.00 | 0.05 | 0.05 | 59 | 1015.3 |
| 20260905152938 | 21 | 0 | 0.0 | 0.0 | 0.00 | 0.05 | 0.05 | 57 | 1015.3 |
| 20260905152438 | 21 | 0 | 0.0 | 0.0 | 0.00 | 0.05 | 0.05 | 57 | 1015.2 |
| 20260905151939 | 21 | 0 | 0.0 | 0.0 | 0.00 | 0.05 | 0.05 | 56 | 1015.3 |
| 20260905150939 | 21 | 0 | 0.0 | 0.0 | 0.00 | 0.05 | 0.05 | 58 | 1015.2 |
| 20260905150439 | 21 | 0 | 0.0 | 0.0 | 0.00 | 0.05 | 0.05 | 56 | 1015.2 |
| 20260905145938 | 21 | 0 | 0.0 | 0.0 | 0.00 | 0.05 | 0.05 | 57 | 1015.1 |
| 20260905145438 | 21 | 0 | 0.0 | 0.0 | 0.00 | 0.05 | 0.05 | 56 | 1015.0 |
| 20260905144938 | 21 | 0 | 0.0 | 0.0 | 0.00 | 0.05 | 0.05 | 57 | 1015.0 |
| 20260905143938 | 21 | 0 | 0.0 | 0.0 | 0.00 | 0.05 | 0.05 | 58 | 1014.9 |
| 20260905142938 | 22 | 0 | 0.0 | 0.0 | 0.00 | 0.05 | 0.05 | 57 | 1015.0 |
| 20260905142439 | 22 | 0 | 0.0 | 0.0 | 0.00 | 0.05 | 0.05 | 60 | 1015.0 |
| 20260905141938 | 22 | 0 | 0.0 | 0.0 | 0.00 | 0.05 | 0.05 | 58 | 1014.9 |
| 20260905141438 | 22 | 0 | 0.0 | 0.0 | 0.00 | 0.05 | 0.05 | 59 | 1015.1 |
| 20260905140438 | 22 | 0 | 0.0 | 0.0 | 0.00 | 0.05 | 0.05 | 59 | 1015.1 |
| 20260905135438 | 21 | 0 | 0.0 | 0.0 | 0.00 | 0.05 | 0.05 | 60 | 1015.1 |
| 20260905134940 | 21 | 0 | 0.0 | 0.0 | 0.00 | 0.05 | 0.05 | 61 | 1015.2 |
| 20260905134439 | 21 | 0 | 0.0 | 0.0 | 0.00 | 0.05 | 0.05 | 61 | 1015.2 |
| 20260905133938 | 21 | 0 | 0.0 | 0.0 | 0.00 | 0.05 | 0.05 | 60 | 1015.2 |
| 20260905133439 | 21 | 0 | 0.0 | 0.0 | 0.00 | 0.05 | 0.05 | 60 | 1015.1 |
| 20260905132939 | 21 | 0 | 0.0 | 0.0 | 0.00 | 0.05 | 0.05 | 61 | 1015.1 |
| 20260905132439 | 21 | 0 | 0.0 | 0.0 | 0.00 | 0.05 | 0.05 | 61 | 1015.2 |
| 20260905131439 | 22 | 0 | 0.0 | 0.0 | 0.00 | 0.05 | 0.05 | 59 | 1015.2 |
| 20260905130939 | 22 | 0 | 0.0 | 0.0 | 0.00 | 0.05 | 0.05 | 57 | 1015.3 |
| 20260905130439 | 22 | 0 | 0.0 | 0.0 | 0.00 | 0.05 | 0.05 | 60 | 1015.2 |
| 20260905125938 | 22 | 0 | 0.0 | 0.0 | 0.00 | 0.05 | 0.05 | 58 | 1015.2 |
| 20260905125440 | 22 | 0 | 0.0 | 0.0 | 0.00 | 0.05 | 0.05 | 59 | 1015.3 |
| 20260905124939 | 21 | 0 | 0.0 | 0.0 | 0.00 | 0.05 | 0.05 | 60 | 1015.3 |
| 20260905124439 | 22 | 0 | 0.0 | 0.0 | 0.00 | 0.05 | 0.05 | 59 | 1015.4 |
| 20260905123939 | 22 | 0 | 0.0 | 0.0 | 0.00 | 0.05 | 0.05 | 60 | 1015.4 |
| 20260905123439 | 21 | 0 | 0.0 | 0.0 | 0.00 | 0.05 | 0.05 | 63 | 1015.4 |
| 20260905122939 | 20 | 0 | 0.0 | 0.0 | 0.00 | 0.05 | 0.05 | 62 | 1015.4 |
| 20260905122440 | 20 | 0 | 0.0 | 0.0 | 0.00 | 0.05 | 0.05 | 61 | 1015.4 |
| 20260905121939 | 20 | 0 | 0.0 | 0.0 | 0.00 | 0.05 | 0.05 | 60 | 1015.4 |
| 20260905121440 | 21 | 0 | 0.0 | 0.0 | 0.00 | 0.05 | 0.05 | 59 | 1015.4 |
| 20260905120939 | 21 | 0 | 0.0 | 0.0 | 0.00 | 0.05 | 0.05 | 58 | 1015.5 |
| 20260905120438 | 21 | 0 | 0.0 | 0.0 | 0.00 | 0.05 | 0.05 | 60 | 1015.4 |
| 20260905115939 | 21 | 0 | 0.0 | 0.0 | 0.00 | 0.05 | 0.05 | 58 | 1015.5 |
| 20260905115438 | 21 | 0 | 0.0 | 0.0 | 0.00 | 0.05 | 0.05 | 59 | 1015.5 |
| 20260905113938 | 19 | 0 | 0.0 | 0.0 | 0.00 | 0.05 | 0.05 | 63 | 1015.5 |
| 20260905113440 | 20 | 0 | 0.0 | 0.0 | 0.00 | 0.05 | 0.05 | 64 | 1015.5 |
| 20260905112939 | 20 | 0 | 0.0 | 0.0 | 0.00 | 0.05 | 0.05 | 63 | 1015.4 |
| 20260905112439 | 21 | 0 | 0.0 | 0.0 | 0.00 | 0.05 | 0.05 | 61 | 1015.4 |
| 20260905111939 | 21 | 0 | 0.0 | 0.0 | 0.00 | 0.05 | 0.05 | 66 | 1015.3 |
| 20260905111441 | 21 | 0 | 0.0 | 0.0 | 0.00 | 0.05 | 0.05 | 66 | 1015.3 |
| 20260905110939 | 21 | 0 | 0.0 | 0.0 | 0.00 | 0.05 | 0.05 | 65 | 1015.3 |
| 20260905110439 | 21 | 0 | 0.0 | 0.0 | 0.00 | 0.05 | 0.05 | 65 | 1015.5 |
| 20260905105439 | 21 | 0 | 0.0 | 0.0 | 0.00 | 0.05 | 0.05 | 63 | 1015.3 |
| 20260905104939 | 20 | 0 | 0.0 | 0.0 | 0.00 | 0.05 | 0.05 | 65 | 1015.5 |
| 20260905104439 | 20 | 0 | 0.0 | 0.0 | 0.00 | 0.05 | 0.05 | 64 | 1015.3 |
| 20260905103939 | 20 | 0 | 0.0 | 0.0 | 0.00 | 0.05 | 0.05 | 64 | 1015.4 |
| 20260905103440 | 21 | 0 | 0.0 | 0.0 | 0.00 | 0.05 | 0.05 | 64 | 1015.4 |
| 20260905102940 | 21 | 0 | 0.0 | 0.0 | 0.00 | 0.05 | 0.05 | 67 | 1015.5 |
| 20260905101939 | 19 | 0 | 0.0 | 0.0 | 0.00 | 0.05 | 0.05 | 73 | 1015.5 |
| 20260905101439 | 18 | 0 | 0.0 | 0.0 | 0.00 | 0.05 | 0.05 | 72 | 1015.5 |
| 20260905100939 | 18 | 0 | 0.0 | 0.0 | 0.00 | 0.05 | 0.05 | 72 | 1015.5 |
| 20260905100439 | 18 | 0 | 0.0 | 0.0 | 0.00 | 0.05 | 0.05 | 71 | 1015.4 |
| 20260905095940 | 18 | 0 | 0.0 | 0.0 | 0.00 | 0.05 | 0.05 | 72 | 1015.4 |
| 20260905095440 | 19 | 0 | 0.0 | 0.0 | 0.00 | 0.05 | 0.05 | 70 | 1015.3 |
| 20260905094940 | 19 | 0 | 0.0 | 0.0 | 0.00 | 0.05 | 0.05 | 70 | 1015.2 |
| 20260905093940 | 20 | 0 | 0.0 | 0.0 | 0.00 | 0.05 | 0.05 | 67 | 1015.1 |
| 20260905093439 | 20 | 0 | 0.0 | 0.0 | 0.00 | 0.05 | 0.05 | 67 | 1015.1 |
| 20260905092440 | 20 | 0 | 0.0 | 0.0 | 0.00 | 0.05 | 0.05 | 69 | 1015.3 |
| 20260905091439 | 20 | 0 | 0.0 | 0.0 | 0.00 | 0.05 | 0.05 | 70 | 1015.3 |
| 20260905090939 | 19 | 0 | 0.0 | 0.0 | 0.00 | 0.05 | 0.05 | 72 | 1015.3 |
| 20260905085940 | 18 | 0 | 0.0 | 0.0 | 0.00 | 0.05 | 0.05 | 76 | 1015.3 |
| 20260905085440 | 18 | 0 | 0.0 | 0.0 | 0.00 | 0.05 | 0.05 | 77 | 1015.3 |
| 20260905084941 | 18 | 0 | 0.0 | 0.0 | 0.00 | 0.05 | 0.05 | 76 | 1015.3 |
| 20260905084439 | 18 | 0 | 0.0 | 0.0 | 0.00 | 0.05 | 0.05 | 77 | 1015.1 |
| 20260905083939 | 18 | 0 | 0.0 | 0.0 | 0.00 | 0.05 | 0.05 | 77 | 1015.2 |
| 20260905083439 | 18 | 0 | 0.0 | 0.0 | 0.00 | 0.05 | 0.05 | 78 | 1015.1 |
| 20260905081440 | 18 | 0 | 0.0 | 0.0 | 0.00 | 0.05 | 0.05 | 80 | 1015.3 |
| 20260905080940 | 18 | 0 | 0.0 | 0.0 | 0.00 | 0.05 | 0.05 | 82 | 1015.3 |
| 20260905080439 | 17 | 0 | 0.0 | 0.0 | 0.00 | 0.05 | 0.05 | 82 | 1015.3 |
| 20260905075939 | 17 | 0 | 0.0 | 0.0 | 0.00 | 0.05 | 0.05 | 82 | 1015.4 |
| 20260905074939 | 16 | 0 | 0.0 | 0.0 | 0.00 | 0.05 | 0.05 | 85 | 1015.3 |
| 20260905074439 | 16 | 0 | 0.0 | 0.0 | 0.00 | 0.05 | 0.05 | 86 | 1015.2 |
| 20260905073939 | 15 | 0 | 0.0 | 0.0 | 0.00 | 0.05 | 0.05 | 86 | 1015.2 |
| 20260905073439 | 15 | 0 | 0.0 | 0.0 | 0.00 | 0.05 | 0.05 | 87 | 1015.2 |
| 20260905072939 | 15 | 0 | 0.0 | 0.0 | 0.00 | 0.05 | 0.05 | 86 | 1015.3 |
| 20260905071440 | 15 | 0 | 0.0 | 0.0 | 0.00 | 0.05 | 0.05 | 89 | 1015.1 |
| 20260905070940 | 15 | 0 | 0.0 | 0.0 | 0.00 | 0.05 | 0.05 | 89 | 1015.1 |
| 20260905070440 | 15 | 0 | 0.0 | 0.0 | 0.00 | 0.05 | 0.05 | 89 | 1015.0 |
| 20260905065940 | 15 | 0 | 0.0 | 0.0 | 0.00 | 0.05 | 0.05 | 90 | 1014.8 |
| 20260905064940 | 15 | 0 | 0.0 | 0.0 | 0.00 | 0.05 | 0.05 | 90 | 1014.7 |
| 20260905064441 | 15 | 0 | 0.0 | 0.0 | 0.00 | 0.05 | 0.05 | 90 | 1014.7 |
| 20260905063939 | 15 | 0 | 0.0 | 0.0 | 0.00 | 0.05 | 0.05 | 90 | 1014.7 |
| 20260905062942 | 15 | 0 | 0.0 | 0.0 | 0.00 | 0.05 | 0.05 | 90 | 1014.6 |
| 20260905061942 | 14 | 0 | 0.0 | 0.0 | 0.00 | 0.05 | 0.05 | 91 | 1014.4 |
| 20260905060940 | 14 | 0 | 0.0 | 0.0 | 0.00 | 0.05 | 0.05 | 90 | 1014.3 |
| 20260905060440 | 14 | 0 | 0.0 | 0.0 | 0.00 | 0.05 | 0.05 | 90 | 1014.4 |
| 20260905055940 | 14 | 0 | 0.0 | 0.0 | 0.00 | 0.05 | 0.05 | 90 | 1014.3 |
| 20260905055440 | 14 | 0 | 0.0 | 0.0 | 0.00 | 0.05 | 0.05 | 90 | 1014.3 |
| 20260905054940 | 14 | 0 | 0.0 | 0.0 | 0.03 | 0.05 | 0.05 | 90 | 1014.2 |
| 20260905054440 | 14 | 0 | 0.0 | 0.0 | 0.03 | 0.05 | 0.05 | 91 | 1014.3 |
| 20260905053940 | 14 | 0 | 0.0 | 0.0 | 0.03 | 0.05 | 0.05 | 91 | 1013.9 |
| 20260905053441 | 14 | 0 | 0.0 | 0.0 | 0.03 | 0.05 | 0.05 | 91 | 1013.8 |
| 20260905052941 | 14 | 0 | 0.0 | 0.0 | 0.03 | 0.05 | 0.05 | 92 | 1013.8 |
| 20260905052440 | 14 | 0 | 0.0 | 0.0 | 0.03 | 0.05 | 0.05 | 92 | 1013.8 |
| 20260905051940 | 14 | 0 | 0.0 | 0.0 | 0.03 | 0.05 | 0.05 | 93 | 1013.8 |
| 20260905050440 | 14 | 0 | 0.0 | 0.0 | 0.03 | 0.05 | 0.05 | 93 | 1013.8 |
| 20260905045941 | 14 | 0 | 0.0 | 0.0 | 0.03 | 0.05 | 0.05 | 93 | 1013.7 |
| 20260905045440 | 15 | 0 | 0.0 | 0.0 | 0.00 | 0.05 | 0.05 | 93 | 1013.3 |
| 20260905044941 | 15 | 0 | 0.0 | 0.0 | 0.00 | 0.05 | 0.05 | 93 | 1013.1 |
| 20260905044441 | 15 | 0 | 0.0 | 0.0 | 0.00 | 0.05 | 0.05 | 93 | 1013.3 |
| 20260905043940 | 15 | 0 | 0.0 | 0.0 | 0.00 | 0.05 | 0.05 | 93 | 1013.3 |
| 20260905043441 | 15 | 0 | 0.0 | 0.0 | 0.00 | 0.05 | 0.05 | 93 | 1013.2 |
| 20260905042940 | 15 | 0 | 0.0 | 0.0 | 0.00 | 0.05 | 0.05 | 93 | 1013.1 |
| 20260905042441 | 15 | 0 | 0.0 | 0.0 | 0.00 | 0.05 | 0.05 | 93 | 1013.1 |
| 20260905041941 | 15 | 0 | 0.0 | 0.0 | 0.00 | 0.05 | 0.05 | 93 | 1013.0 |
| 20260905041440 | 15 | 0 | 0.0 | 0.0 | 0.00 | 0.05 | 0.05 | 92 | 1013.2 |
| 20260905040940 | 15 | 0 | 0.0 | 0.0 | 0.00 | 0.05 | 0.05 | 93 | 1013.1 |
| 20260905040440 | 15 | 0 | 0.0 | 0.0 | 0.00 | 0.05 | 0.05 | 93 | 1013.2 |
| 20260905035942 | 15 | 0 | 0.0 | 0.0 | 0.00 | 0.05 | 0.05 | 93 | 1012.9 |
| 20260905035441 | 15 | 0 | 0.0 | 0.0 | 0.00 | 0.05 | 0.05 | 93 | 1012.8 |
| 20260905034941 | 15 | 0 | 0.0 | 0.0 | 0.00 | 0.05 | 0.05 | 93 | 1012.8 |
| 20260905034441 | 15 | 0 | 0.0 | 0.0 | 0.00 | 0.05 | 0.05 | 93 | 1012.7 |
| 20260905033940 | 15 | 0 | 0.0 | 0.0 | 0.00 | 0.05 | 0.05 | 93 | 1012.5 |
| 20260905033441 | 15 | 0 | 0.0 | 0.0 | 0.00 | 0.05 | 0.05 | 93 | 1012.4 |
| 20260905032940 | 15 | 0 | 0.0 | 0.0 | 0.00 | 0.05 | 0.05 | 93 | 1012.4 |
| 20260905031441 | 15 | 0 | 0.0 | 0.0 | 0.00 | 0.05 | 0.05 | 93 | 1012.0 |
| 20260905030941 | 15 | 0 | 0.0 | 0.0 | 0.00 | 0.05 | 0.05 | 93 | 1012.2 |
| 20260905030441 | 15 | 0 | 0.0 | 0.0 | 0.00 | 0.05 | 0.05 | 93 | 1012.0 |
| 20260905025942 | 15 | 0 | 0.0 | 0.0 | 0.00 | 0.05 | 0.05 | 93 | 1011.7 |
| 20260905025440 | 15 | 0 | 0.0 | 0.0 | 0.00 | 0.05 | 0.05 | 93 | 1011.9 |
| 20260905024940 | 15 | 0 | 0.0 | 0.0 | 0.00 | 0.05 | 0.05 | 93 | 1011.9 |
| 20260905024440 | 15 | 0 | 0.0 | 0.0 | 0.00 | 0.05 | 0.05 | 93 | 1012.0 |
| 20260905023940 | 15 | 0 | 0.0 | 0.0 | 0.00 | 0.05 | 0.05 | 93 | 1012.1 |
| 20260905023440 | 15 | 0 | 0.0 | 0.0 | 0.00 | 0.05 | 0.05 | 93 | 1012.0 |
| 20260905022940 | 15 | 0 | 0.0 | 0.0 | 0.00 | 0.05 | 0.05 | 93 | 1012.2 |
| 20260905022441 | 15 | 0 | 0.0 | 0.0 | 0.00 | 0.05 | 0.05 | 93 | 1012.0 |
| 20260905021441 | 15 | 0 | 0.0 | 0.0 | 0.00 | 0.05 | 0.05 | 93 | 1012.4 |
| 20260905020441 | 15 | 0 | 0.0 | 0.0 | 0.00 | 0.05 | 0.05 | 93 | 1012.2 |
| 20260905015941 | 15 | 0 | 0.0 | 0.0 | 0.03 | 0.05 | 0.05 | 93 | 1012.2 |
| 20260905015440 | 15 | 0 | 0.0 | 0.0 | 0.03 | 0.05 | 0.05 | 93 | 1012.1 |
| 20260905014941 | 15 | 0 | 0.0 | 0.0 | 0.05 | 0.05 | 0.05 | 93 | 1012.2 |
| 20260905014441 | 15 | 0 | 0.0 | 0.0 | 0.05 | 0.05 | 0.05 | 92 | 1012.2 |
| 20260905013941 | 15 | 0 | 0.0 | 0.0 | 0.05 | 0.05 | 0.05 | 92 | 1011.8 |
| 20260905013441 | 15 | 0 | 0.0 | 0.0 | 0.05 | 0.05 | 0.05 | 92 | 1011.7 |
| 20260905012941 | 15 | 0 | 0.0 | 0.0 | 0.05 | 0.05 | 0.05 | 92 | 1011.5 |
| 20260905012441 | 15 | 0 | 0.0 | 0.0 | 0.05 | 0.05 | 0.05 | 91 | 1011.8 |
| 20260905011941 | 15 | 0 | 0.0 | 0.0 | 0.05 | 0.05 | 0.05 | 91 | 1011.7 |
| 20260905011441 | 16 | 0 | 0.0 | 0.0 | 0.05 | 0.05 | 0.05 | 90 | 1012.0 |
| 20260905010941 | 16 | 0 | 0.0 | 0.0 | 0.05 | 0.05 | 0.05 | 89 | 1011.8 |
| 20260905010441 | 16 | 0 | 0.0 | 0.0 | 0.05 | 0.05 | 0.05 | 88 | 1011.8 |
| 20260905005441 | 17 | 0 | 0.0 | 0.0 | 0.03 | 0.03 | 0.03 | 84 | 1011.8 |
| 20260905004942 | 17 | 0 | 0.0 | 0.0 | 0.00 | 0.00 | 0.00 | 81 | 1012.0 |
| 20260905004441 | 17 | 0 | 0.0 | 0.0 | 0.00 | 0.00 | 0.00 | 80 | 1011.4 |
| 20260905003941 | 17 | 0 | 0.0 | 0.0 | 0.00 | 0.00 | 0.00 | 79 | 1011.9 |
| 20260905003441 | 18 | 0 | 0.0 | 0.0 | 0.00 | 0.00 | 0.00 | 78 | 1011.8 |
| 20260905002941 | 18 | 0 | 0.0 | 0.0 | 0.00 | 0.00 | 0.00 | 78 | 1011.5 |
| 20260905002442 | 18 | 0 | 0.0 | 0.0 | 0.00 | 0.00 | 0.00 | 77 | 1011.1 |
| 20260905001941 | 18 | 0 | 0.0 | 0.0 | 0.00 | 0.00 | 0.00 | 77 | 1011.3 |
| 20260905001441 | 18 | 0 | 0.0 | 0.0 | 0.00 | 0.00 | 0.00 | 76 | 1011.5 |
| 20260905000941 | 18 | 0 | 0.0 | 0.0 | 0.00 | 0.00 | 0.00 | 75 | 1011.3 |
| 20260905000441 | 18 | 0 | 0.0 | 0.0 | 0.00 | 0.00 | 0.00 | 75 | 1011.3 |
| 20260904235441 | 18 | 0 | 0.0 | 0.0 | 0.00 | 0.00 | 0.00 | 74 | 1011.1 |
| 20260904234941 | 18 | 0 | 0.0 | 0.0 | 0.00 | 0.00 | 0.00 | 74 | 1011.0 |
| 20260904234441 | 18 | 0 | 0.0 | 0.0 | 0.00 | 0.00 | 0.00 | 73 | 1011.2 |
| 20260904233941 | 19 | 0 | 0.0 | 0.0 | 0.00 | 0.00 | 0.00 | 73 | 1011.3 |
| 20260904233442 | 19 | 0 | 0.0 | 0.0 | 0.00 | 0.00 | 0.00 | 73 | 1011.0 |
| 20260904232942 | 18 | 0 | 0.0 | 0.0 | 0.00 | 0.00 | 0.00 | 74 | 1011.1 |
| 20260904232442 | 18 | 0 | 0.0 | 0.0 | 0.00 | 0.00 | 0.00 | 75 | 1010.9 |
| 20260904231943 | 18 | 0 | 0.0 | 0.0 | 0.00 | 0.00 | 0.00 | 75 | 1010.8 |
| 20260904231442 | 19 | 0 | 0.0 | 0.0 | 0.00 | 0.00 | 0.00 | 74 | 1010.6 |
| 20260904230443 | 19 | 0 | 0.0 | 0.0 | 0.00 | 0.00 | 0.00 | 73 | 1010.6 |
| 20260904225941 | 19 | 0 | 0.0 | 0.0 | 0.00 | 0.00 | 0.00 | 73 | 1010.6 |
| 20260904225441 | 19 | 0 | 0.0 | 0.0 | 0.00 | 0.00 | 0.00 | 74 | 1010.5 |
| 20260904224941 | 19 | 0 | 0.0 | 0.0 | 0.00 | 0.00 | 0.00 | 74 | 1010.4 |
| 20260904224441 | 19 | 0 | 0.0 | 0.0 | 0.00 | 0.00 | 0.00 | 74 | 1010.3 |
| 20260904223941 | 19 | 0 | 0.0 | 0.0 | 0.00 | 0.00 | 0.00 | 74 | 1010.3 |
| 20260904223441 | 20 | 0 | 0.0 | 0.0 | 0.00 | 0.00 | 0.00 | 72 | 1010.3 |
| 20260904222943 | 20 | 0 | 0.0 | 0.0 | 0.00 | 0.00 | 0.00 | 71 | 1010.1 |
| 20260904222442 | 20 | 0 | 0.0 | 0.0 | 0.00 | 0.00 | 0.00 | 70 | 1009.8 |
| 20260904221941 | 20 | 0 | 0.0 | 0.0 | 0.00 | 0.00 | 0.00 | 70 | 1009.7 |
| 20260904221442 | 21 | 0 | 0.0 | 0.0 | 0.00 | 0.00 | 0.00 | 70 | 1009.8 |
| 20260904220942 | 21 | 0 | 0.0 | 0.0 | 0.00 | 0.00 | 0.00 | 72 | 1009.8 |
| 20260904220442 | 21 | 0 | 0.0 | 0.0 | 0.00 | 0.00 | 0.00 | 73 | 1009.6 |
| 20260904215945 | 22 | 0 | 0.0 | 0.0 | 0.00 | 0.00 | 0.00 | 74 | 1009.4 |
| 20260904215442 | 22 | 0 | 0.0 | 0.0 | 0.00 | 0.00 | 0.00 | 73 | 1009.2 |
| 20260904214443 | 22 | 0 | 0.0 | 0.0 | 0.00 | 0.00 | 0.00 | 71 | 1008.9 |
| 20260904213441 | 23 | 0 | 0.0 | 0.0 | 0.00 | 0.00 | 0.00 | 69 | 1008.8 |
| 20260904212941 | 23 | 0 | 0.0 | 0.0 | 0.00 | 0.00 | 0.00 | 68 | 1008.7 |
| 20260904212443 | 23 | 0 | 0.0 | 0.0 | 0.00 | 0.00 | 0.00 | 68 | 1007.5 |
| 20260904211942 | 23 | 0 | 0.0 | 0.0 | 0.00 | 0.00 | 0.00 | 68 | 1007.5 |
| 20260904210942 | 22 | 0 | 0.0 | 0.0 | 0.00 | 0.00 | 0.00 | 69 | 1007.4 |
| 20260904210442 | 22 | 0 | 0.0 | 0.0 | 0.00 | 0.00 | 0.00 | 70 | 1007.5 |
| 20260904205942 | 22 | 0 | 0.0 | 0.0 | 0.00 | 0.00 | 0.00 | 70 | 1007.6 |
| 20260904205442 | 22 | 0 | 0.0 | 0.0 | 0.00 | 0.00 | 0.00 | 72 | 1007.5 |
| 20260904204942 | 22 | 0 | 0.0 | 0.0 | 0.00 | 0.00 | 0.00 | 72 | 1007.6 |
| 20260904204442 | 22 | 0 | 0.0 | 0.0 | 0.00 | 0.00 | 0.00 | 72 | 1007.5 |
| 20260904203942 | 21 | 0 | 0.0 | 0.0 | 0.00 | 0.00 | 0.00 | 73 | 1007.5 |
| 20260904203442 | 21 | 0 | 0.0 | 0.0 | 0.00 | 0.00 | 0.00 | 73 | 1007.5 |
| 20260904202942 | 21 | 0 | 0.0 | 0.0 | 0.00 | 0.00 | 0.00 | 74 | 1007.5 |
| 20260904202443 | 21 | 0 | 0.0 | 0.0 | 0.00 | 0.00 | 0.00 | 74 | 1007.5 |
| 20260904201942 | 21 | 0 | 0.0 | 0.0 | 0.00 | 0.00 | 0.00 | 74 | 1007.6 |
| 20260904201442 | 21 | 0 | 0.0 | 0.0 | 0.00 | 0.00 | 0.00 | 75 | 1007.6 |
| 20260904200442 | 21 | 0 | 0.0 | 0.0 | 0.00 | 0.00 | 0.00 | 76 | 1007.7 |
| 20260904194942 | 20 | 0 | 0.0 | 0.0 | 0.00 | 0.00 | 0.00 | 78 | 1007.9 |
| 20260904194442 | 20 | 0 | 0.0 | 0.0 | 0.00 | 0.00 | 0.00 | 78 | 1007.9 |
| 20260904193942 | 20 | 0 | 0.0 | 0.0 | 0.00 | 0.00 | 0.00 | 79 | 1008.1 |
| 20260904192942 | 20 | 0 | 0.0 | 0.0 | 0.00 | 0.00 | 0.00 | 80 | 1008.0 |
| 20260904192443 | 20 | 0 | 0.0 | 0.0 | 0.00 | 0.00 | 0.00 | 80 | 1008.0 |
| 20260904191942 | 20 | 0 | 0.0 | 0.0 | 0.00 | 0.00 | 0.00 | 81 | 1008.1 |
| 20260904191443 | 20 | 0 | 0.0 | 0.0 | 0.00 | 0.00 | 0.00 | 82 | 1008.2 |
| 20260904190942 | 20 | 0 | 0.0 | 0.0 | 0.00 | 0.00 | 0.00 | 82 | 1008.3 |
| 20260904190442 | 19 | 0 | 0.0 | 0.0 | 0.00 | 0.00 | 0.00 | 82 | 1008.3 |
| 20260904185942 | 19 | 0 | 0.0 | 0.0 | 0.00 | 0.00 | 0.00 | 84 | 1008.4 |
| 20260904185442 | 18 | 0 | 0.0 | 0.0 | 0.00 | 0.00 | 0.00 | 84 | 1008.5 |
| 20260904184942 | 18 | 0 | 0.0 | 0.0 | 0.00 | 0.00 | 0.00 | 84 | 1008.6 |
| 20260904184442 | 19 | 0 | 0.0 | 0.0 | 0.00 | 0.00 | 0.00 | 83 | 1008.7 |
| 20260904183942 | 19 | 0 | 0.0 | 0.0 | 0.00 | 0.00 | 0.00 | 83 | 1008.8 |
| 20260904183442 | 19 | 0 | 0.0 | 0.0 | 0.00 | 0.00 | 0.00 | 82 | 1008.9 |
| 20260904182943 | 19 | 0 | 0.0 | 0.0 | 0.00 | 0.00 | 0.00 | 82 | 1008.9 |
| 20260904182443 | 20 | 0 | 0.0 | 0.0 | 0.00 | 0.00 | 0.00 | 82 | 1009.0 |
| 20260904181943 | 20 | 0 | 0.0 | 0.0 | 0.00 | 0.00 | 0.00 | 82 | 1009.1 |
| 20260904181442 | 19 | 0 | 0.0 | 0.0 | 0.00 | 0.00 | 0.00 | 82 | 1009.1 |
| 20260904180443 | 19 | 0 | 0.0 | 0.0 | 0.00 | 0.00 | 0.00 | 82 | 1009.1 |
| 20260904175943 | 20 | 0 | 0.0 | 0.0 | 0.00 | 0.00 | 0.00 | 82 | 1009.1 |
| 20260904175442 | 20 | 0 | 0.0 | 0.0 | 0.00 | 0.00 | 0.00 | 81 | 1008.9 |
| 20260904174942 | 20 | 0 | 0.0 | 0.0 | 0.00 | 0.00 | 0.00 | 81 | 1008.9 |
| 20260904174442 | 20 | 0 | 0.0 | 0.0 | 0.00 | 0.00 | 0.00 | 80 | 1008.8 |
| 20260904173942 | 20 | 0 | 0.0 | 0.0 | 0.00 | 0.00 | 0.00 | 79 | 1008.8 |
| 20260904173442 | 20 | 0 | 0.0 | 0.0 | 0.00 | 0.00 | 0.00 | 79 | 1008.8 |
| 20260904172443 | 21 | 0 | 0.0 | 0.0 | 0.00 | 0.00 | 0.00 | 77 | 1008.6 |
| 20260904171942 | 21 | 0 | 0.0 | 0.0 | 0.00 | 0.00 | 0.00 | 77 | 1008.6 |
| 20260904171442 | 21 | 0 | 0.0 | 0.0 | 0.00 | 0.00 | 0.00 | 76 | 1008.6 |
| 20260904170942 | 21 | 0 | 0.0 | 0.0 | 0.00 | 0.00 | 0.00 | 76 | 1008.7 |
| 20260904170442 | 22 | 0 | 0.0 | 0.0 | 0.00 | 0.00 | 0.00 | 75 | 1008.7 |
| 20260904165443 | 22 | 0 | 0.0 | 0.0 | 0.00 | 0.00 | 0.00 | 73 | 1008.8 |
| 20260904164943 | 22 | 0 | 0.0 | 0.0 | 0.00 | 0.00 | 0.00 | 72 | 1008.8 |
| 20260904164443 | 23 | 0 | 0.0 | 0.0 | 0.00 | 0.00 | 0.00 | 72 | 1008.8 |
| 20260904163943 | 23 | 0 | 0.0 | 0.0 | 0.00 | 0.00 | 0.00 | 71 | 1008.8 |
| 20260904163443 | 23 | 0 | 0.0 | 0.0 | 0.00 | 0.00 | 0.00 | 71 | 1008.9 |
| 20260904162942 | 23 | 0 | 0.0 | 0.0 | 0.00 | 0.00 | 0.00 | 70 | 1009.0 |
| 20260904162442 | 23 | 0 | 0.0 | 0.0 | 0.00 | 0.00 | 0.00 | 69 | 1009.1 |
| 20260904161943 | 23 | 0 | 0.0 | 0.0 | 0.00 | 0.00 | 0.00 | 69 | 1009.1 |
| 20260904161443 | 23 | 0 | 0.0 | 0.0 | 0.00 | 0.00 | 0.00 | 69 | 1009.1 |
| 20260904160943 | 23 | 0 | 0.0 | 0.0 | 0.00 | 0.00 | 0.00 | 69 | 1009.2 |
| 20260904155945 | 23 | 0 | 0.0 | 0.0 | 0.00 | 0.00 | 0.00 | 69 | 1009.2 |
| 20260904155443 | 23 | 0 | 0.0 | 0.0 | 0.00 | 0.00 | 0.00 | 69 | 1009.4 |
| 20260904154943 | 24 | 0 | 0.0 | 0.0 | 0.00 | 0.00 | 0.00 | 69 | 1009.4 |
| 20260904154444 | 24 | 0 | 0.0 | 0.0 | 0.00 | 0.00 | 0.00 | 69 | 1009.4 |
| 20260904153942 | 24 | 0 | 0.0 | 0.0 | 0.00 | 0.00 | 0.00 | 67 | 1009.4 |